SL-8 R/B

Satellite information

Favourite Embed

Satellite Type and Status

ROCKET BODYIN ORBIT

Key statistics

Satellite SL-8 R/B at a glance.

Uptime

10309

Days in orbit

Revolutions

≈ 13.8

Per day

Orbit

LEO

Low Earth Orbit

Inclination

82.9

Latest

Satellite identification and parameters

Extended collection of information and parameters for SL-8 R/B.

Object identification

Identified? True

Debris? False

Object name: SL-8 R/B

International designator: 1997-052C

Object number (NORAD): 24955

Object ID (CCSDS): 24955

Country: COMMONWEALTH OF INDEPENDENT STATES (CIS)

Current information (Y/N): Y

RCS size: LARGE

Orbital parameters

Period: 104.204 minutes

Inclination: 82.9203 deg

SMA: 7335.29 km

Apoapsis: 979.249 km

Periapsis: 935.06 km

RAAN: 101.2813 deg

Eccentricy: 0.00301211

Argument of periapsis: 30.1659 deg

Mean anomaly: 330.1227 deg

Mean motion: 13.81900765 rev/day

Mean motion (dot): 0.00000085 rev/day2

B* drag term: 0.000064326358 1/REarth

Two-line elements (TLE)

Creation date: Dec. 14, 2025, 3:07 a.m.

Reference frame: TEME

Reference center: EARTH

Epoch: Dec. 13, 2025, 1:48 p.m. UTC

TLE line 0: 0 SL-8 R/B

TLE line 1: 1 24955U 97052C 25347.57520797 .00000085 00000-0 64326-4 0 9999

TLE line 2: 2 24955 82.9203 101.2813 0030121 30.1659 330.1227 13.81900765422778

Live tracking on map

Real-time ground track for satellite SL-8 R/B.

In-orbit conjunctions

A list of the most updated potential collisions computed for object SL-8 R/B.

Target Orbit TCA Probability of collision Miss distance Type
NIMBUS 2 DEB SSO 2025-04-03 21:13:19 0.0001905975 58.0 (m) DEBRIS
NIMBUS 2 DEB SSO 2024-09-22 16:29:09 0.0001833941 56.0 (m) DEBRIS

Associated space launch

Navigation satellite providing location information for the Tsiklon-B navigation system

SL-8 R/B was lifted into orbit during the mission ‘Kosmos-3M | Parus 89’, on board a Kosmos-3M space rocket.

The launch took place on Sept. 23, 1997, 4:44 p.m. from 132/1 (132L).

For more information about the launch, click the button.

Launch to space Kosmos-3M | Parus 89
Kosmos-3M | Parus 89

Agency: N/A

Status: Launch Successful

Launch date: Sept. 23, 1997, 4:44 p.m. UTC

Rocket: Kosmos-3M

Launch pad: 132/1 (132L)

Location: Plesetsk Cosmodrome, Russian Federation

...

Latest news about this satellite

There are no fresh news available about this satellite. Check back as we update our databases every day.


Newsletter sign-up

Weekly statistics, charts and insights to help you stay on top of the space industry.